Location: Brachbach
(49.1847°N, 9.7240°E)
Time: 13:08:10
(UTC+00:00)

Nimbus 7 Rocket - Pass Details

Date: 08 August 2024
Orbit: 921 x 965 km, 99.4° (Epoch: 14 September)

Event Time Altitude Azimuth Distance (km) Brightness Sun altitude
Rises 01:08:36 0° 11° (N) 3,604 8.8 -21.0°
Reaches altitude 10° 01:11:09 10° 5° (N) 2,650 7.8 -20.8°
Maximum altitude 01:16:41 43° 296° (WNW) 1,273 5.1 -20.4°
Enters shadow 01:19:06 29° 246° (WSW) 1,627 5.2 -20.2°
